Theta_e
317 317 317 316 317 316 316 316 317 317 317 318 318 319 319 319 319 319 320 319 319 320 320 320 319 320 321 322 322 322 318 321 320 318 318 322 331 341 334 335 336 342 351 341 337 331 327 328 330 338 343 342 341 338 343 343 344 343 333 329 324 326 325 330 329 330 336 335 339 341 344 341 337 342 345 349 345 344 343 341 341 343 344 345 345 347 347 346
316 316 316 316 316 316 316 316 316 316 317 317 318 318 319 318 318 319 319 319 319 319 319 319 320 320 321 322 323 322 321 321 318 320 321 332 333 331 335 339 336 346 349 337 330 326 324 324 332 339 340 337 343 337 342 338 344 335 331 330 323 328 329 334 334 335 334 334 340 343 345 342 338 343 344 341 340 342 339 338 341 339 342 344 345 345 345 345
316 316 316 316 315 315 315 316 316 316 317 317 318 318 318 318 319 319 319 319 319 319 319 319 319 320 321 322 323 320 321 319 320 321 326 342 335 331 336 339 338 351 339 335 330 326 323 325 334 340 338 335 338 336 338 337 339 338 332 325 326 331 333 333 333 334 337 340 341 341 342 343 341 343 344 341 338 341 335 333 335 335 336 339 341 343 344 344
316 317 316 315 315 315 316 316 316 316 317 317 317 318 318 318 318 318 318 319 319 319 319 319 319 320 321 322 322 324 321 320 317 325 335 340 336 335 338 339 342 353 339 335 330 325 323 328 334 340 336 332 334 337 332 337 334 336 333 327 329 332 331 331 332 333 336 342 339 341 342 339 342 344 342 342 337 337 339 337 335 335 337 338 340 342 343 342
317 317 316 315 315 315 316 316 316 316 316 317 317 318 318 318 318 318 318 318 318 319 319 319 319 320 321 322 320 323 320 311 315 332 339 339 337 335 337 342 344 347 335 334 329 325 325 325 332 337 335 329 332 331 331 336 338 333 332 334 332 333 329 331 330 332 332 336 342 343 337 339 345 345 340 340 334 333 338 339 340 339 340 339 339 341 342 341
317 317 316 316 315 316 316 316 316 317 317 316 317 317 317 317 317 318 318 318 318 318 319 319 319 320 322 321 324 322 318 301 317 330 343 339 337 337 339 343 346 341 334 328 325 325 323 323 325 328 328 329 328 327 332 334 336 326 331 331 332 331 328 331 329 329 331 333 338 338 340 344 342 340 341 340 338 339 345 343 342 341 342 342 343 342 340 340
317 316 317 316 316 316 316 316 316 316 316 316 317 317 317 317 317 317 317 317 317 318 319 319 320 321 322 320 324 320 319 314 324 337 341 344 344 345 342 342 349 336 327 324 324 321 320 320 320 321 323 327 329 329 332 332 335 330 329 331 330 331 328 329 326 326 329 330 336 341 345 342 339 336 341 339 341 343 345 344 343 343 343 342 341 341 341 340
316 316 316 316 316 316 316 316 316 316 316 316 316 317 317 317 317 317 317 317 317 318 319 319 320 321 322 324 319 318 312 315 330 333 346 349 345 342 343 340 337 327 322 322 321 319 320 318 316 319 319 318 325 327 332 328 331 328 328 330 330 330 329 327 325 324 326 330 338 341 339 341 340 342 340 339 341 343 343 344 343 343 342 342 342 341 341 341
316 316 316 316 316 316 316 316 316 316 316 316 316 316 316 316 316 317 317 317 318 319 319 320 320 322 324 321 317 309 307 323 334 333 343 340 338 339 338 332 329 323 322 321 322 321 319 317 317 320 315 317 327 324 329 325 323 328 329 330 327 325 326 326 324 323 324 332 337 337 337 341 343 343 337 340 342 344 344 343 343 342 341 341 341 342 342 342
316 316 316 315 316 315 316 316 316 316 316 315 316 316 316 316 316 316 317 317 318 319 319 320 320 322 323 322 316 306 315 341 333 335 335 340 342 336 331 329 327 323 320 320 320 321 317 318 317 323 324 320 325 320 327 324 323 326 325 324 323 324 325 325 322 322 326 332 337 335 335 338 342 338 331 342 343 344 343 342 343 341 340 341 341 342 342 343
316 316 315 315 315 315 315 315 316 315 315 315 315 315 315 316 316 316 317 317 317 318 319 320 321 322 323 320 311 307 319 339 334 334 336 339 338 329 325 325 326 321 320 319 318 321 319 320 321 324 322 320 322 322 326 325 327 325 324 323 324 325 325 324 322 320 328 331 337 338 335 339 340 337 333 340 343 344 342 341 341 341 341 341 341 342 343 342
316 315 315 315 315 315 315 315 315 315 315 315 315 314 315 316 315 316 316 317 318 318 319 320 321 325 323 317 310 313 329 333 337 332 333 333 331 328 325 325 324 322 320 317 318 320 321 323 325 320 312 324 315 323 322 326 324 324 323 319 322 324 322 323 322 324 328 332 337 339 335 332 334 330 340 343 343 343 342 341 340 341 342 342 342 342 343 342
315 315 315 315 315 315 315 315 315 315 315 314 314 314 315 315 315 316 317 317 318 319 320 322 323 326 322 311 310 322 334 339 336 331 330 329 328 329 326 323 323 323 322 319 319 321 322 322 322 316 321 318 320 314 321 325 324 324 323 321 320 321 319 323 325 326 328 333 338 337 317 326 330 336 340 342 342 342 341 341 341 341 342 343 343 342 342 343
315 315 315 315 315 315 315 315 315 315 314 314 314 314 314 314 316 318 319 317 319 320 321 323 327 323 319 310 317 322 332 340 334 328 328 329 325 324 323 323 322 321 320 319 321 323 320 325 322 321 324 318 318 326 321 322 324 319 323 321 319 318 315 323 326 326 328 334 337 336 319 323 330 336 339 342 342 340 339 340 341 341 341 342 342 343 341 343
315 315 315 315 315 315 315 315 314 314 314 314 313 313 313 314 319 322 320 319 320 322 322 325 328 322 313 311 321 326 338 335 327 325 328 324 323 321 321 322 320 320 320 319 318 321 322 322 321 319 315 322 321 319 317 318 320 321 315 314 319 316 315 323 326 327 327 329 337 333 322 325 331 335 339 342 342 341 339 340 341 341 341 341 342 342 340 342
315 315 315 315 315 315 315 314 314 314 314 313 312 312 314 317 322 322 321 323 323 323 327 324 322 321 314 308 321 336 331 325 323 327 328 326 324 321 323 320 320 320 319 318 320 320 321 321 315 315 319 320 318 315 314 315 316 319 316 315 314 316 315 318 324 329 331 329 333 331 323 329 330 336 339 341 340 340 340 340 341 341 341 341 341 342 342 341
315 315 315 315 315 315 315 314 314 314 313 312 311 313 316 325 322 323 324 325 326 328 326 320 319 320 311 319 327 323 317 320 324 328 327 328 325 326 323 321 318 317 319 317 318 317 319 316 319 318 321 318 317 316 312 310 310 312 317 315 315 314 314 313 322 329 331 330 325 331 328 327 330 336 338 340 340 340 339 339 340 341 342 342 342 341 341 341
315 315 315 315 315 315 315 314 314 313 312 311 310 312 315 322 323 324 325 328 328 325 324 324 319 316 309 316 310 315 319 316 319 327 329 330 329 325 323 319 318 317 316 313 314 311 315 314 317 310 316 317 317 315 310 305 310 310 312 312 311 313 314 312 316 317 327 326 326 326 327 327 332 335 337 338 340 340 340 340 340 341 341 341 341 341 341 341
315 315 315 315 315 315 314 314 313 312 312 310 312 313 315 316 322 324 320 321 318 311 304 309 310 299 300 310 316 316 317 316 317 325 325 326 327 325 324 323 318 313 309 309 308 310 312 313 314 314 311 313 313 314 312 313 315 313 314 313 313 311 312 312 313 316 319 323 320 325 323 324 328 332 335 338 339 339 340 341 341 341 342 342 341 341 341 341
316 315 315 315 314 314 314 314 312 311 310 312 320 322 320 316 314 313 317 316 311 310 309 310 312 311 311 314 314 315 316 316 310 314 325 327 323 319 318 319 317 314 309 305 308 309 311 306 305 309 312 314 315 316 317 315 316 314 315 315 313 313 313 313 314 314 316 316 319 322 323 324 326 330 333 337 338 338 338 338 339 341 341 342 342 341 341 342
315 315 315 314 314 314 314 313 311 310 309 312 316 315 308 308 304 303 307 310 312 312 309 309 310 310 310 312 314 314 310 308 312 313 322 328 321 316 313 316 313 310 308 309 307 311 309 305 307 311 313 316 316 317 318 316 315 314 313 313 312 313 311 313 313 314 316 315 317 319 320 321 323 328 331 335 334 334 336 337 339 339 341 342 343 343 343 343
315 315 314 314 313 313 313 312 310 309 308 315 316 313 312 312 314 314 310 305 309 310 310 310 311 309 313 312 314 314 311 307 308 313 321 323 316 310 311 313 310 307 309 309 309 305 303 303 308 313 315 317 317 317 317 316 314 313 313 313 312 313 314 313 313 314 315 314 314 313 312 316 319 323 329 331 331 333 334 337 338 338 341 341 342 343 344 344
315 315 314 314 313 312 311 310 309 307 317 318 316 313 312 316 319 319 314 307 305 310 308 308 306 307 309 312 313 313 308 305 304 308 313 319 311 310 310 309 308 309 308 308 304 303 301 305 310 314 317 316 316 316 315 314 315 313 312 311 310 314 312 308 311 313 314 313 312 314 312 314 316 317 324 328 329 332 335 337 338 341 342 342 342 343 343 343
315 315 314 313 313 311 310 309 307 313 320 317 315 313 317 319 319 316 310 304 303 307 308 308 309 308 308 308 313 311 308 307 307 306 315 314 308 309 308 308 308 309 306 306 306 304 304 308 314 316 316 315 312 314 313 312 309 313 312 311 311 311 312 313 310 312 313 314 313 312 311 312 315 313 314 322 329 329 333 335 337 340 342 344 345 345 345 343
315 315 315 314 312 310 308 305 315 317 318 317 314 317 319 321 321 318 308 306 305 305 310 308 310 309 309 313 313 309 308 308 308 311 313 312 308 306 306 311 309 307 307 307 307 306 306 314 317 315 314 313 314 312 312 311 308 309 312 313 312 313 312 312 312 311 310 309 312 310 306 308 314 315 315 320 322 326 332 333 333 338 339 343 342 343 345 345
315 314 314 313 312 310 306 313 314 317 316 314 315 318 320 321 320 319 309 302 296 301 306 300 310 304 312 307 310 309 309 303 308 312 315 315 314 308 309 307 310 305 308 308 307 309 310 316 315 313 313 313 313 313 314 314 310 309 310 315 314 313 312 312 311 310 306 305 309 312 305 305 313 317 321 324 324 327 328 331 332 334 338 340 341 342 343 343
314 314 313 312 311 307 316 311 315 316 311 313 318 320 321 320 324 316 304 298 294 301 300 304 305 304 308 308 309 308 296 300 311 313 314 313 309 313 305 306 307 311 313 312 308 304 312 313 312 314 313 313 312 310 314 314 310 308 314 314 313 312 310 310 311 310 309 313 310 311 310 307 308 316 323 325 326 328 331 333 335 335 338 339 340 340 343 342
315 313 311 310 309 307 318 315 316 313 313 316 320 322 322 323 321 316 303 289 288 304 298 303 304 309 307 308 308 304 305 308 302 306 311 313 313 309 306 306 305 307 311 310 299 310 312 310 311 310 312 311 310 312 315 314 310 310 314 313 310 311 311 311 310 310 310 308 305 307 311 306 307 315 323 324 321 323 324 326 329 335 339 338 341 340 341 341
313 312 311 310 309 304 312 318 318 313 317 319 322 322 321 321 315 304 299 289 298 301 309 300 309 306 305 307 304 305 305 306 302 306 311 312 312 309 304 308 308 309 311 309 303 308 311 312 313 313 311 309 313 315 316 314 309 313 313 314 313 312 312 311 309 309 309 305 302 307 308 304 308 316 318 322 320 320 322 325 327 330 333 339 340 342 342 342
313 311 311 309 309 313 318 318 315 319 320 321 323 324 318 316 308 298 292 285 302 293 302 302 303 301 305 302 301 303 302 305 307 308 309 308 308 310 306 311 308 308 307 309 307 308 308 312 316 314 311 307 312 314 314 314 314 315 313 310 310 310 309 311 310 309 307 300 303 308 308 306 304 312 315 316 316 321 323 326 328 330 332 336 341 342 343 343
311 310 309 308 318 319 318 317 317 320 321 324 324 321 315 309 301 295 286 293 301 298 303 301 299 304 301 300 298 303 304 304 305 307 304 307 306 307 308 307 310 308 307 305 304 305 307 308 308 306 308 308 310 308 312 314 314 311 309 307 307 306 309 307 306 309 300 298 305 309 308 306 300 311 317 320 323 324 324 324 326 327 330 333 337 340 342 343
309 307 308 313 319 319 315 313 319 321 323 324 321 315 308 297 301 290 289 302 292 296 298 298 301 301 301 302 300 301 300 303 304 305 302 304 303 302 303 302 304 299 299 300 299 304 302 303 304 305 308 306 307 306 307 310 312 309 308 307 301 299 300 296 301 296 297 298 305 309 308 306 309 314 317 319 321 323 325 326 326 328 330 333 335 337 341 344
307 307 303 311 316 319 320 322 323 324 323 322 317 312 303 297 288 295 295 298 292 300 297 302 299 300 301 300 299 302 304 299 303 303 304 303 302 302 303 303 303 301 296 300 299 299 299 303 303 303 305 307 307 302 302 301 307 307 305 304 300 297 295 292 297 300 299 303 307 307 308 304 312 314 319 319 322 325 326 327 328 329 331 333 335 337 338 342
307 307 319 319 319 321 321 326 324 323 321 320 314 306 301 291 289 298 296 297 297 301 300 299 300 301 301 298 299 302 298 301 302 301 303 301 301 299 301 303 303 302 303 302 298 298 293 294 299 301 300 305 306 303 304 304 305 306 309 306 303 303 297 294 296 293 296 300 303 307 302 304 305 309 319 321 324 326 327 328 331 332 333 334 335 337 336 337
304 312 325 323 320 324 323 323 326 325 321 314 307 302 293 292 296 295 295 298 299 300 298 301 299 299 298 299 300 301 302 297 302 302 301 300 298 299 299 299 302 303 303 298 301 301 298 297 300 303 303 305 303 305 306 305 305 307 308 309 304 303 308 299 301 300 300 300 299 301 302 310 311 319 321 324 324 325 327 327 329 330 332 333 333 333 333 334
311 327 324 321 317 319 323 325 325 322 318 309 302 297 293 295 293 298 296 301 300 297 298 300 300 297 297 297 300 300 303 300 300 301 299 299 299 298 299 300 300 302 301 299 302 297 298 295 300 301 304 304 304 306 305 305 298 304 305 301 304 309 307 304 304 305 304 302 299 306 308 311 317 318 319 321 321 322 324 325 326 327 329 332 331 332 333 334
325 324 319 317 316 320 326 325 323 321 316 308 300 294 298 298 300 299 301 298 299 299 299 294 295 296 295 295 297 299 300 302 300 300 296 300 297 298 299 300 302 302 303 301 300 303 298 295 300 301 299 304 306 305 305 306 306 306 300 305 309 311 308 305 298 301 300 296 299 303 303 304 306 304 318 318 318 320 321 322 324 326 327 328 329 331 332 332
323 319 317 315 318 322 325 326 320 318 313 304 297 297 301 298 302 301 302 301 301 300 298 297 295 299 296 296 296 298 300 298 298 299 296 299 294 301 299 299 302 302 303 304 301 301 303 294 298 300 301 303 306 305 304 306 307 304 303 309 303 299 298 304 303 294 295 294 299 300 306 305 305 308 313 313 315 316 319 322 322 322 324 325 327 330 332 333
324 317 310 314 319 321 325 325 320 314 308 301 299 296 300 300 303 302 303 302 301 300 298 298 296 298 299 296 297 299 299 296 298 298 296 297 295 299 299 300 300 303 303 304 302 303 303 296 295 301 301 302 304 304 298 302 306 307 308 306 308 306 303 300 302 304 302 295 298 300 304 301 309 310 312 312 315 317 318 319 320 321 322 323 324 326 329 332
313 310 307 317 319 321 328 321 317 310 305 298 298 298 303 299 302 304 305 303 300 301 299 298 299 297 299 298 299 297 299 299 298 297 298 297 296 300 299 302 300 302 302 304 302 303 301 303 294 298 302 301 298 301 299 300 301 303 303 302 303 305 307 306 306 304 300 298 299 298 297 302 309 314 313 313 315 317 318 319 320 321 322 323 323 322 325 329
315 309 309 318 318 321 319 315 308 303 300 302 302 300 301 300 303 303 304 305 303 305 302 300 300 298 298 297 297 300 298 299 298 297 298 298 299 295 301 301 302 301 303 302 302 303 301 300 296 297 298 298 297 300 299 299 300 301 302 302 303 302 300 298 297 305 303 300 297 298 297 304 311 316 315 315 317 317 319 320 320 322 322 322 321 322 324 325
312 304 306 318 319 318 313 305 304 306 303 300 298 301 300 305 302 302 304 305 304 302 305 303 302 301 301 300 300 299 299 298 299 298 299 297 299 300 301 304 303 302 301 300 300 303 305 303 300 296 297 297 298 300 302 302 301 301 303 301 303 303 304 300 294 299 303 303 306 304 300 302 313 317 317 316 317 318 319 320 319 320 322 322 320 321 324 326
309 306 315 318 319 316 309 303 306 304 301 301 304 303 304 303 302 303 302 303 301 303 302 301 300 299 301 301 300 300 300 297 299 298 299 299 299 301 303 305 304 303 304 300 302 302 306 300 296 296 299 300 301 302 302 302 301 301 302 303 302 301 301 301 302 306 301 302 300 303 300 301 312 317 317 317 319 319 320 319 319 320 321 323 322 321 323 324
309 308 311 316 319 315 307 299 299 300 301 303 303 301 304 302 302 301 301 302 302 301 301 300 301 303 300 303 301 299 302 295 298 299 298 300 298 302 302 304 306 303 304 301 301 302 298 300 300 294 294 295 297 300 299 301 302 300 299 301 301 302 302 302 304 307 302 302 302 301 296 300 311 317 316 317 317 317 317 318 319 318 320 321 322 322 322 323
311 311 310 312 316 314 304 305 303 301 301 301 301 300 300 300 302 303 302 301 304 303 302 299 302 302 301 302 300 301 302 300 296 300 300 300 299 302 302 304 306 304 304 305 304 305 301 300 300 292 289 287 288 289 292 295 297 299 299 299 300 300 300 302 299 302 297 303 305 302 301 307 312 315 315 315 316 316 318 318 319 319 319 319 321 321 323 322
306 303 306 308 311 309 308 309 306 303 302 302 300 300 301 299 301 303 304 302 304 303 303 302 303 304 301 301 299 299 299 302 300 298 300 298 300 301 301 302 303 304 305 304 305 304 300 300 300 297 295 294 295 297 298 300 298 296 295 297 298 300 302 303 304 302 298 303 303 306 306 305 307 310 311 312 314 314 315 317 317 317 319 320 321 321 321 322
310 303 305 302 308 307 305 307 305 305 301 303 299 300 298 299 300 301 304 300 302 302 302 302 301 300 299 300 298 298 299 299 302 301 300 299 300 301 302 302 302 304 305 303 304 304 301 297 297 298 297 297 297 295 297 298 296 295 295 295 297 300 302 303 301 299 307 303 298 307 309 305 305 308 311 312 313 314 315 317 317 318 318 318 319 320 321 320
303 306 309 308 302 299 303 302 305 304 303 304 301 302 299 299 299 298 301 303 303 304 301 301 301 301 301 300 300 297 299 299 300 298 300 300 299 300 300 302 301 302 304 302 304 303 300 296 296 296 295 296 297 296 297 296 296 295 295 295 296 299 302 301 301 302 305 302 299 306 309 306 307 309 311 311 313 314 314 315 317 319 319 320 320 319 318 318
310 308 307 310 304 304 304 303 304 303 303 304 302 302 299 299 297 299 300 300 301 301 303 298 298 300 300 301 301 299 300 295 296 301 300 299 300 300 298 299 301 303 302 302 302 304 302 297 296 297 295 295 295 296 296 295 294 296 296 296 297 299 302 303 302 303 306 306 307 308 308 306 308 309 312 312 314 315 315 317 319 319 317 319 318 318 317 318
307 309 304 309 309 305 305 305 304 303 301 303 301 300 301 299 298 300 301 301 298 299 303 299 299 301 301 301 303 299 300 302 300 298 301 300 298 301 300 301 300 302 302 300 301 303 300 296 297 296 295 293 294 296 296 294 295 295 295 296 297 299 302 305 304 305 307 306 307 306 307 305 310 314 313 315 316 315 316 315 317 318 318 318 318 317 318 318
314 316 315 308 303 304 306 304 304 304 302 303 302 301 301 300 300 302 300 303 301 299 301 299 301 301 302 302 302 301 303 303 303 302 302 302 299 301 300 300 301 300 300 300 300 300 300 298 298 297 293 292 294 294 293 295 294 294 295 296 296 297 298 300 303 305 305 304 305 305 304 304 309 313 313 314 314 313 312 313 315 316 317 318 318 317 319 318
318 317 318 313 302 305 303 304 303 304 299 302 304 302 302 300 302 303 299 302 303 304 303 301 301 301 300 301 301 302 304 304 304 305 305 305 305 304 304 303 302 301 300 300 301 299 300 298 294 294 292 292 294 293 293 292 293 291 293 296 298 300 303 305 307 307 307 307 304 302 304 309 311 312 311 312 313 313 313 313 314 315 318 318 317 317 318 319
Wind_Speed
15 15 15 16 16 15 15 15 16 17 17 16 15 15 15 15 15 16 16 15 15 15 14 13 12 11 10 10 8 6 3 8 6 7 9 12 3 10 8 5 15 12 17 15 14 14 13 11 12 12 9 9 6 6 4 5 4 4 4 2 4 4 7 7 8 7 4 6 9 10 9 7 9 9 6 7 6 7 7 6 6 5 6 9 16 18 19 20
15 15 16 16 15 15 15 15 16 17 16 16 16 16 15 15 15 15 16 15 15 16 15 13 12 11 10 9 9 3 7 8 10 10 16 6 6 7 9 8 17 14 20 16 17 16 15 13 13 13 9 8 5 4 5 3 5 5 1 3 6 5 7 6 8 6 4 3 8 9 8 6 8 9 8 8 9 9 9 7 8 10 11 14 17 20 20 20
16 16 16 16 15 15 15 16 16 16 16 17 17 16 16 16 15 15 15 15 15 15 15 13 12 11 10 9 2 1 7 9 9 11 3 12 9 9 10 10 16 16 18 16 15 14 13 14 14 14 9 7 6 6 5 3 5 5 5 2 5 6 5 7 8 7 6 2 7 9 9 6 8 8 9 6 10 9 8 9 11 12 14 16 19 20 20 19
16 16 16 16 16 15 16 16 17 16 17 17 17 17 17 17 16 16 15 15 15 15 14 13 12 10 9 9 2 7 8 9 7 6 7 12 11 10 10 11 15 16 14 12 12 11 9 11 13 12 8 8 7 6 7 5 7 4 5 1 6 4 3 8 6 7 5 3 5 6 9 7 9 7 9 7 9 8 6 10 11 15 17 19 20 21 19 19
16 16 16 16 16 16 17 17 17 17 17 18 18 18 18 17 17 16 16 16 15 14 13 12 11 10 10 2 3 6 6 7 6 6 8 12 11 11 10 9 14 15 13 11 11 9 9 12 11 10 7 7 7 7 8 9 7 1 4 2 1 1 2 6 7 6 6 3 4 5 9 7 9 6 9 9 3 6 7 10 11 15 18 21 22 21 20 19
16 16 15 16 16 16 17 17 18 17 17 19 19 19 19 19 18 18 17 17 15 14 13 11 11 10 9 2 7 6 5 1 4 5 8 10 11 11 10 11 15 13 11 13 12 11 12 11 11 10 8 7 8 8 8 5 4 5 6 4 1 3 3 4 5 5 4 3 3 6 5 6 9 7 8 8 4 6 7 10 12 16 18 19 18 21 21 21
17 17 16 16 17 17 17 18 18 18 18 19 20 20 20 20 18 18 17 16 15 13 12 11 9 10 5 4 7 6 7 3 2 8 11 10 11 13 15 15 14 12 13 15 13 12 13 12 12 9 8 7 8 8 5 8 7 7 2 2 2 3 5 4 4 2 1 0 3 3 7 7 9 6 8 8 5 7 9 12 14 16 18 19 19 18 20 20
18 17 18 16 17 17 17 18 18 19 19 19 20 21 21 21 21 19 18 15 14 13 11 9 9 9 5 7 6 6 7 4 8 11 12 13 14 15 17 14 12 12 14 14 14 13 13 13 13 9 8 8 5 10 6 6 8 7 7 3 3 4 4 5 4 2 1 1 3 6 6 7 8 3 8 8 8 9 11 13 15 17 19 17 17 18 18 18
18 17 17 18 18 18 18 18 18 18 19 19 20 21 22 22 22 20 18 16 14 13 11 9 8 8 6 7 7 6 5 7 7 13 16 15 15 15 16 12 13 13 12 12 13 11 12 10 11 9 4 11 4 10 7 6 7 10 7 5 6 6 6 5 4 2 2 3 5 6 6 6 7 5 6 8 8 10 13 15 16 18 18 17 17 17 18 17
17 17 17 18 18 18 18 18 19 19 19 20 19 21 22 22 22 22 19 17 15 12 10 9 7 7 8 7 6 6 5 1 10 13 14 14 14 14 13 11 13 13 12 12 12 11 12 8 9 7 6 6 3 7 8 8 3 1 2 5 7 7 7 3 4 1 3 5 8 7 7 7 8 8 8 8 9 13 13 15 16 17 18 16 15 16 16 17
18 17 18 18 17 19 19 19 19 19 19 21 21 22 22 24 23 22 20 17 14 11 9 8 7 7 7 7 7 1 1 2 8 11 13 13 14 13 10 12 12 11 10 10 11 10 9 4 7 3 5 3 7 4 6 5 5 4 4 6 8 8 6 3 3 2 6 7 9 7 7 7 8 8 7 11 12 13 14 15 16 15 16 15 16 16 14 15
17 17 18 18 18 19 19 19 19 20 20 21 22 22 23 24 24 22 19 15 11 10 9 9 9 6 7 7 8 4 1 3 8 9 10 12 11 9 8 12 11 9 9 10 10 11 6 6 5 9 2 4 7 2 10 3 6 6 5 7 4 5 6 2 2 5 6 7 9 7 8 9 9 7 9 12 13 13 13 14 15 15 14 14 15 14 13 14
18 18 18 18 19 19 19 19 19 20 21 22 22 23 24 23 21 18 14 9 9 10 10 9 9 5 6 8 2 7 2 4 8 10 10 8 6 4 6 7 8 7 7 8 8 8 4 6 8 11 3 6 4 3 7 3 7 6 7 6 5 7 6 5 3 5 6 7 10 10 2 6 8 8 9 13 13 13 13 13 14 12 13 13 14 13 13 13
17 17 17 18 19 20 20 19 20 20 22 21 18 23 23 21 18 14 8 6 3 9 10 11 7 6 5 2 6 4 3 5 9 11 10 8 9 8 6 6 4 4 1 3 4 6 4 4 7 8 1 7 3 2 9 6 5 8 5 5 7 6 6 6 3 7 5 5 9 9 0 5 12 8 11 12 13 14 13 14 14 13 13 13 13 13 13 14
17 17 17 19 20 20 20 20 18 19 21 20 19 22 21 18 16 7 1 6 5 10 11 9 6 4 7 3 5 5 1 3 11 11 10 12 9 9 8 7 6 4 4 2 4 4 3 4 7 7 7 5 4 5 5 7 8 7 6 9 7 6 6 8 5 6 3 6 8 8 7 7 10 10 12 12 13 13 13 13 14 13 13 13 13 13 14 14
14 16 18 18 21 20 18 15 14 18 20 19 18 21 19 15 4 6 6 5 9 13 9 7 6 6 8 5 6 7 6 9 9 10 9 9 9 7 9 8 6 5 6 5 0 4 4 5 8 7 5 5 8 8 7 6 7 9 9 8 9 8 7 8 6 5 2 6 6 6 4 8 8 10 11 11 13 13 12 13 13 14 14 14 13 13 13 14
14 15 14 17 19 20 20 15 15 17 15 18 20 18 13 4 6 8 9 11 8 6 5 2 3 4 4 5 5 8 9 5 6 8 9 6 5 9 11 10 7 8 6 5 3 6 7 7 4 3 6 7 8 8 8 9 9 9 9 8 7 11 6 5 8 4 3 4 6 9 8 9 8 9 10 10 11 12 10 12 13 13 12 13 12 13 14 14
16 16 16 16 19 20 19 15 15 15 16 17 16 12 10 6 5 9 6 6 4 4 4 3 5 5 5 5 9 8 7 8 5 8 9 6 5 10 10 8 8 10 9 8 6 11 9 7 7 7 8 7 6 8 10 10 10 10 12 10 7 5 5 2 6 6 5 4 4 7 5 5 8 8 9 10 10 10 10 10 12 13 13 13 12 13 15 14
19 19 16 16 17 18 18 16 14 13 16 20 18 11 12 12 8 6 3 5 5 5 6 7 6 6 2 13 7 8 6 8 6 9 11 11 8 6 6 7 11 13 10 9 8 11 9 6 7 8 11 11 10 11 10 2 5 9 13 12 6 10 10 5 7 6 1 6 6 6 5 6 8 8 8 10 11 10 9 9 10 12 12 13 12 13 13 14
20 18 17 16 15 18 20 16 13 12 12 12 4 5 4 5 5 5 7 6 9 10 8 2 8 3 4 6 7 6 5 7 7 7 11 9 10 9 8 9 10 10 9 9 11 10 10 10 11 11 10 12 12 11 9 4 4 1 3 10 7 6 7 6 4 5 1 3 4 5 4 4 5 8 8 9 10 10 10 11 11 11 12 12 12 13 13 14
17 18 17 16 15 15 16 14 13 9 10 6 6 5 3 4 6 2 1 7 7 7 8 7 6 7 5 3 2 4 9 9 4 10 11 10 10 11 8 10 10 9 9 7 10 8 11 10 12 11 8 11 10 8 5 3 4 6 6 8 8 7 6 6 5 3 2 6 7 2 3 4 4 6 9 9 10 12 13 13 13 13 13 12 13 13 13 13
19 17 17 16 16 14 14 13 11 11 7 4 5 5 3 6 4 4 5 3 7 4 6 6 3 7 4 6 3 4 6 8 10 11 9 12 11 12 11 10 10 9 9 8 9 9 11 12 10 12 7 7 8 9 6 7 6 5 7 7 8 10 4 6 5 3 3 5 4 5 5 5 5 6 9 11 12 11 13 13 14 14 14 12 13 13 13 13
20 18 17 16 15 14 13 12 11 8 3 4 5 3 4 5 4 2 5 6 5 4 5 6 6 7 6 2 2 4 8 11 12 11 11 12 11 12 11 10 10 7 10 11 10 10 11 11 11 10 9 9 8 8 8 8 7 7 7 7 8 8 9 8 7 6 2 4 2 2 5 4 6 4 7 10 11 10 11 12 12 12 14 14 14 14 13 14
21 20 17 16 15 14 14 13 12 6 3 3 2 6 4 4 4 3 6 5 1 5 3 2 4 4 5 4 5 8 10 7 7 13 11 11 11 6 8 10 10 7 10 13 12 10 8 7 9 12 11 11 10 9 9 9 9 9 9 8 9 7 9 8 7 5 3 5 5 3 6 6 8 8 7 9 10 10 10 10 9 9 10 10 10 13 14 15
20 20 18 16 15 15 14 14 4 1 1 5 2 3 3 3 3 4 7 4 5 4 2 3 3 4 2 1 4 8 3 6 3 9 10 11 9 7 9 8 7 9 9 13 11 9 8 2 10 11 12 11 10 9 10 9 8 9 12 9 7 2 4 7 2 5 8 8 7 5 6 8 8 5 2 4 8 9 6 6 6 5 6 8 10 12 13 14
19 17 20 15 17 16 14 4 4 1 5 2 5 3 3 4 2 4 6 5 5 5 7 6 3 5 1 6 5 2 8 6 3 4 7 2 2 7 6 7 6 8 11 11 9 7 4 9 9 12 13 12 10 8 10 9 7 6 9 15 10 4 6 5 5 4 6 7 7 7 9 7 6 8 5 4 1 5 3 1 3 7 6 7 5 5 10 11
19 17 15 15 14 12 5 3 2 2 7 5 3 4 4 3 1 5 6 5 4 2 1 6 5 5 4 5 4 7 13 9 7 7 8 4 7 2 9 7 8 3 6 6 6 9 4 10 11 11 12 12 10 9 8 10 6 5 10 7 8 10 9 8 8 8 6 3 4 6 8 5 9 6 8 6 7 7 6 3 2 6 8 10 11 11 6 8
18 15 13 12 8 7 4 4 3 4 4 5 3 3 4 2 4 6 6 5 6 4 6 7 5 1 3 5 4 7 8 18 10 4 2 6 4 9 11 8 10 9 8 7 9 7 11 8 10 13 12 10 10 8 8 11 9 1 6 4 6 7 9 9 9 7 7 3 8 8 8 7 5 8 8 6 8 7 7 6 6 3 5 7 10 11 15 14
16 15 12 9 6 5 6 3 5 2 4 3 3 3 2 3 6 5 6 1 3 1 2 4 0 4 5 6 7 2 8 2 3 9 6 5 1 4 8 9 8 9 10 11 6 9 9 6 11 8 9 9 8 9 6 9 11 5 2 3 1 2 4 9 8 9 6 6 9 9 10 9 6 5 5 6 8 8 8 7 8 6 8 5 11 11 13 14
16 14 12 8 6 4 3 2 5 2 1 2 4 4 3 5 5 6 7 3 2 8 5 4 5 8 9 11 6 6 7 5 6 7 7 4 5 8 1 6 4 8 10 11 9 5 7 4 3 5 6 5 2 3 3 8 10 5 7 7 6 6 7 6 7 7 6 11 11 11 11 11 5 6 7 6 9 8 7 6 7 7 5 7 6 11 11 11
16 13 10 6 3 3 2 4 5 2 1 3 5 5 5 5 6 5 3 6 3 9 5 5 4 6 11 11 8 6 8 7 7 9 9 7 9 3 6 7 3 7 8 9 8 7 9 8 9 3 5 1 2 5 6 8 8 6 7 8 8 6 4 6 7 6 8 9 11 11 10 10 10 7 7 8 7 8 8 8 9 9 8 8 7 5 11 11
16 11 7 6 3 3 5 6 3 1 3 5 6 6 5 6 6 2 5 2 3 4 2 7 6 8 11 8 7 9 9 9 4 6 7 5 6 4 1 3 9 9 8 10 8 9 9 6 6 7 4 2 9 8 9 9 8 10 8 9 10 8 8 9 8 10 10 8 11 10 8 6 7 6 6 8 7 8 8 8 9 9 9 8 6 7 5 9
16 12 4 8 3 4 4 4 2 3 4 6 5 6 6 5 4 3 5 3 4 5 6 3 7 9 10 10 9 8 6 7 5 7 6 6 5 6 6 6 5 6 4 10 10 11 7 6 7 5 5 3 4 10 9 9 10 12 11 10 11 9 10 9 10 7 9 8 4 9 10 1 9 9 7 8 9 9 9 8 9 9 8 8 8 8 3 8
15 8 4 6 7 4 4 3 3 3 5 5 6 6 7 1 6 2 4 6 8 3 3 5 8 9 13 8 9 7 9 6 3 5 4 6 5 7 6 6 8 3 8 8 8 9 9 9 6 4 5 5 2 4 6 4 14 11 10 10 10 7 8 10 9 12 12 9 9 7 9 8 11 7 5 9 10 10 9 10 9 9 9 8 9 9 13 9
14 7 4 3 6 6 5 4 3 4 5 5 7 5 2 5 4 4 5 4 5 3 8 4 8 10 9 9 6 3 4 7 4 7 5 5 5 4 4 4 6 6 5 8 2 5 6 6 7 7 6 3 3 4 5 4 7 11 9 7 10 9 4 9 7 10 10 10 10 10 4 7 9 9 8 6 10 11 11 12 12 12 11 12 11 13 11 10
8 4 5 1 6 7 2 1 3 5 5 6 4 5 6 6 4 5 6 6 2 1 9 9 9 9 7 7 5 7 2 5 7 6 8 8 8 6 6 5 6 8 4 7 7 6 3 5 5 5 1 4 5 3 1 4 6 9 8 10 3 7 4 1 2 3 8 8 8 9 10 11 11 9 8 8 8 11 12 14 15 15 14 13 13 13 12 10
3 2 2 7 8 6 1 2 2 5 5 7 0 6 4 5 7 6 4 7 6 5 6 8 4 2 11 8 7 8 9 10 6 4 6 4 8 8 6 5 6 5 5 7 4 4 4 8 3 4 6 5 2 1 2 1 5 1 10 7 6 4 7 6 6 7 9 10 8 10 12 11 10 6 4 9 9 12 13 14 15 16 15 15 13 12 13 12
4 2 1 9 10 4 0 1 4 5 6 4 9 7 2 4 6 6 6 6 4 6 6 2 6 7 7 8 8 9 9 6 7 3 8 1 5 5 3 3 6 6 6 2 6 4 4 7 7 4 4 5 6 2 5 2 2 5 5 5 9 9 10 7 7 11 11 12 8 10 11 9 5 6 2 7 10 11 12 13 14 16 16 15 14 14 12 12
4 5 2 11 9 4 0 2 5 6 4 5 5 6 6 7 6 8 6 5 3 7 3 3 2 2 2 6 8 5 3 4 6 6 6 2 3 6 5 4 3 7 4 7 5 2 3 4 8 4 2 6 5 5 7 5 5 2 4 7 1 5 7 10 8 4 8 9 10 10 11 7 6 6 8 7 9 9 11 11 14 15 15 14 13 12 14 13
4 4 5 9 9 4 1 4 7 2 2 6 6 7 2 7 7 9 8 6 4 6 4 2 2 8 3 6 6 6 5 6 5 5 2 3 5 4 5 3 5 5 5 5 2 2 3 4 3 7 5 7 5 3 4 4 1 8 9 6 5 8 5 7 5 7 6 8 10 10 10 7 7 6 6 8 7 9 9 11 12 12 14 14 13 12 12 13
1 3 5 10 11 4 5 6 3 6 7 6 8 7 7 6 6 7 8 8 4 8 6 5 1 4 7 8 6 4 5 5 4 4 5 5 2 5 7 7 6 6 6 4 1 3 3 5 1 7 9 3 7 5 5 4 5 5 5 2 2 7 11 11 9 4 6 4 6 10 9 9 8 4 5 6 7 8 9 10 10 13 14 13 11 13 12 12
5 0 5 11 11 7 7 2 5 3 4 6 6 6 4 5 4 7 6 6 8 5 5 6 9 7 5 6 6 6 7 7 5 5 3 4 5 6 5 8 5 5 7 4 5 5 5 2 2 5 4 5 8 5 2 3 2 5 4 2 4 4 5 8 8 10 6 3 6 3 11 8 7 5 6 7 7 9 9 10 11 12 13 12 13 13 12 12
5 5 3 8 8 8 1 6 4 5 6 5 3 5 2 4 7 6 6 7 4 5 6 7 7 3 6 3 5 6 5 5 4 6 8 9 9 8 6 6 5 5 6 5 4 4 6 2 5 6 5 6 4 2 1 1 2 6 3 3 3 2 3 6 6 5 9 7 7 6 5 7 7 6 6 7 8 9 9 10 10 10 10 12 13 13 14 13
4 5 3 8 7 4 7 4 4 6 6 7 6 8 7 9 10 9 9 10 6 5 7 5 7 9 7 4 3 5 2 3 4 5 5 3 6 5 6 7 7 3 7 5 5 5 4 2 4 6 5 6 6 6 4 1 4 2 3 4 5 3 2 4 6 4 7 3 7 10 8 9 9 6 5 7 8 9 10 10 10 9 10 11 12 12 13 14
1 2 5 6 6 4 4 5 3 5 5 6 5 6 4 5 7 9 9 9 7 6 2 7 7 3 6 3 5 3 4 4 7 3 5 5 7 3 7 8 8 7 8 7 7 4 3 4 3 6 8 9 9 9 7 7 4 3 3 3 3 4 3 4 8 8 7 2 4 8 7 12 11 9 8 8 9 9 9 10 9 10 11 11 10 11 12 13
3 1 3 6 5 7 7 3 5 3 4 3 5 6 4 6 6 7 7 10 9 9 8 5 4 3 5 4 6 5 6 4 2 6 5 6 6 4 6 5 9 8 7 7 6 3 2 2 4 5 7 6 7 6 4 4 3 3 4 3 5 3 3 4 4 6 9 7 4 6 14 15 13 11 9 8 8 8 9 9 9 10 11 10 11 11 11 12
2 3 4 3 3 6 6 4 4 3 3 4 2 3 5 5 3 6 9 3 6 6 7 7 4 1 3 2 6 7 6 9 9 8 5 7 4 4 3 5 6 9 5 2 5 2 2 3 3 3 5 6 6 7 6 4 2 3 1 3 3 4 2 3 4 2 5 8 6 8 16 16 13 11 8 8 8 8 7 7 9 9 9 10 10 11 12 13
2 2 2 3 3 2 1 5 6 3 3 1 5 1 3 4 4 4 5 7 3 4 2 4 6 7 6 6 1 4 4 6 5 6 5 5 6 5 5 4 5 5 4 4 4 3 3 2 3 1 5 4 4 6 5 3 2 2 2 1 3 3 3 2 5 4 4 6 8 13 13 13 12 11 9 7 5 7 7 8 8 9 8 10 11 12 13 13
5 4 4 3 1 4 5 4 4 3 6 5 4 3 4 4 6 5 5 3 4 5 6 4 6 6 5 3 2 5 3 4 5 3 2 4 2 3 3 5 4 2 2 2 4 3 3 2 3 2 5 4 3 3 2 1 3 2 2 2 1 2 4 5 6 6 8 11 15 13 12 13 9 10 8 6 4 4 6 7 7 8 10 10 10 11 12 13
4 2 5 3 5 4 3 1 2 1 4 2 0 5 3 3 5 3 4 5 2 5 3 6 7 6 5 4 2 5 6 8 4 6 3 2 4 2 2 4 3 3 2 2 1 4 7 4 4 6 5 4 3 3 3 1 1 4 3 3 4 4 4 5 8 9 12 12 11 13 13 9 6 6 7 5 4 3 4 6 7 7 8 9 10 11 12 12
3 3 3 2 3 4 2 2 1 1 3 3 3 4 3 5 6 6 7 6 5 5 4 7 5 6 6 7 8 8 7 7 7 7 4 4 2 3 4 4 2 1 1 1 1 2 5 4 4 5 5 5 4 3 3 2 2 4 4 6 6 7 6 6 5 5 4 10 12 12 10 8 7 6 7 6 5 3 4 4 5 5 7 7 8 10 11 12
1 2 2 4 3 2 0 2 2 3 5 5 4 3 2 5 4 1 5 5 6 7 5 4 3 2 6 5 7 7 5 5 5 4 4 3 2 2 2 2 2 2 1 1 1 2 1 3 5 6 7 4 6 3 1 4 6 6 8 7 6 3 3 5 6 2 3 7 9 9 5 8 8 5 6 6 4 6 4 4 5 5 6 7 7 8 9 10
Wind_Direction
341 339 337 337 335 333 330 328 328 326 323 321 322 324 325 326 324 325 326 325 324 324 324 322 324 324 317 315 313 309 243 270 266 244 232 248 9 109 156 135 163 197 166 168 148 156 161 163 172 165 180 187 184 202 162 210 239 250 233 269 94 67 72 41 38 49 73 128 140 161 167 155 152 155 140 168 151 113 116 120 109 112 117 116 119 131 142 147
339 337 338 337 334 331 328 329 327 323 320 320 322 321 324 324 324 323 323 323 323 321 321 321 320 319 317 307 309 320 270 267 267 253 243 85 154 150 154 177 166 186 174 169 167 169 161 169 165 180 174 186 152 176 171 193 218 242 239 284 78 53 68 49 43 64 50 74 139 161 175 181 147 158 154 175 147 142 135 142 145 126 113 118 132 140 146 152
339 338 338 336 333 330 330 329 325 321 320 320 320 320 322 323 321 321 320 320 320 320 317 318 318 315 308 310 305 234 276 274 254 248 239 162 144 160 160 166 172 190 187 170 175 173 172 165 165 183 182 186 188 158 208 193 216 221 279 102 92 67 78 54 46 37 56 67 148 161 167 199 133 169 159 188 153 162 160 154 153 141 137 142 142 148 150 155
341 338 337 336 333 330 330 327 325 322 320 320 319 318 321 320 319 319 317 318 317 315 316 314 312 310 309 305 40 286 273 281 248 87 67 148 143 156 166 157 178 194 190 178 176 180 174 164 172 194 186 222 174 189 184 169 231 121 245 118 93 47 34 42 36 35 56 91 148 166 155 186 152 173 171 158 158 175 178 161 161 150 152 149 150 152 155 159
341 338 336 334 333 331 329 326 324 323 321 321 319 318 318 318 317 315 317 314 315 312 313 311 307 306 302 323 258 262 276 265 91 59 90 132 140 152 159 171 179 189 193 175 171 178 170 170 175 199 206 201 167 200 206 183 253 328 271 24 64 356 333 34 16 44 24 63 138 165 167 180 150 181 185 181 170 145 173 152 147 150 156 155 156 155 158 162
338 337 335 332 330 330 328 325 324 322 322 319 318 317 316 315 315 314 313 313 310 309 306 306 303 300 300 177 265 254 256 292 36 70 120 124 138 153 162 167 188 194 179 167 171 167 175 177 184 190 200 216 182 204 186 228 174 247 186 228 278 345 330 332 334 47 325 92 145 172 151 153 163 178 186 187 79 43 121 133 139 148 157 156 157 157 160 165
337 335 334 331 329 329 326 324 322 321 320 318 316 315 314 313 313 312 311 309 306 304 301 299 300 293 297 227 247 254 252 25 102 108 118 132 137 144 149 161 188 195 181 177 181 177 185 176 197 189 202 211 188 216 124 209 198 261 293 53 297 312 311 340 333 2 331 252 153 154 132 180 170 178 168 181 96 103 120 131 138 144 150 156 159 165 161 164
335 335 332 330 328 328 325 322 321 319 319 318 315 314 312 312 312 310 309 307 303 297 298 294 292 286 273 255 242 221 221 79 97 127 126 127 132 129 143 164 184 180 182 183 178 184 178 188 194 185 214 207 168 209 155 212 201 231 233 222 304 284 289 295 313 328 299 221 135 148 165 174 182 139 164 172 129 126 128 134 137 144 151 160 158 164 162 163
334 332 332 330 328 327 323 322 319 318 318 316 314 313 311 310 309 308 306 302 298 295 285 284 277 278 257 276 264 268 155 54 118 137 142 145 139 146 161 165 189 179 180 183 185 182 188 187 205 199 202 211 125 211 184 229 200 212 248 298 297 287 295 299 287 266 192 171 146 170 171 152 180 132 183 150 135 132 134 138 143 149 153 162 165 164 163 166
332 332 330 329 327 325 323 321 319 318 318 316 314 313 311 308 306 305 302 297 292 284 275 264 256 244 243 249 245 243 78 7 135 147 152 147 146 151 172 164 179 182 180 182 187 187 201 179 215 177 315 240 168 214 198 217 64 334 277 280 285 289 283 265 282 5 172 169 165 173 155 153 159 204 133 161 146 139 145 145 148 154 158 163 165 165 166 168
332 330 330 328 327 325 323 320 319 318 318 315 315 313 310 308 306 303 298 292 283 268 253 241 231 229 232 247 262 177 35 190 151 154 152 152 153 163 165 165 182 186 186 174 195 195 201 212 205 164 258 238 192 185 221 205 319 273 295 286 259 251 253 275 267 203 176 160 180 182 149 146 163 220 139 175 152 153 149 153 155 158 161 164 165 164 169 171
331 330 329 327 325 323 323 319 319 319 318 317 315 313 310 308 305 301 295 287 267 246 230 221 210 229 258 263 257 42 293 114 160 152 158 158 163 171 154 169 185 192 190 181 198 200 197 212 196 202 201 84 205 97 212 203 246 265 272 260 220 228 230 126 290 150 195 139 182 176 142 176 175 198 131 149 155 158 156 156 162 162 162 165 165 164 169 171
330 330 328 326 323 323 320 319 319 318 319 316 314 314 313 308 303 297 296 279 241 222 207 196 201 237 267 240 137 81 85 131 152 153 159 164 134 146 165 174 190 205 196 195 189 190 194 219 219 218 283 245 208 225 59 210 232 252 233 253 245 207 191 110 138 156 185 120 185 154 119 164 205 146 150 149 156 162 161 160 165 164 165 164 167 167 170 171
331 327 327 325 323 321 320 319 319 318 318 316 314 317 312 305 299 295 288 250 171 191 186 186 214 228 249 287 86 107 105 133 143 162 168 157 157 135 154 168 178 190 181 255 181 177 190 232 221 239 331 246 205 61 232 188 213 229 184 218 244 197 143 118 133 150 166 128 199 145 162 113 161 161 150 153 162 168 165 163 166 166 167 166 171 171 175 171
328 328 327 323 323 321 318 320 320 319 318 316 318 318 309 305 303 287 261 163 182 164 170 183 224 234 225 110 97 100 47 180 166 176 173 172 156 146 157 160 175 182 188 201 191 187 183 211 217 217 207 218 287 223 222 211 190 223 201 208 216 204 129 110 138 169 202 164 199 204 216 144 146 142 150 155 165 173 167 165 168 167 170 168 172 175 178 175
323 325 322 322 323 320 318 320 319 318 317 318 319 313 307 302 20 99 157 133 150 155 171 197 194 248 291 180 103 136 186 186 181 169 171 193 171 155 147 153 139 163 175 156 242 182 196 207 212 202 186 175 241 211 210 205 201 201 231 199 201 203 151 139 121 119 50 153 180 194 308 106 107 134 146 159 167 175 171 167 170 168 171 170 175 176 178 175
324 320 320 320 322 321 319 320 317 318 315 317 318 304 299 343 93 109 115 135 149 185 216 277 176 216 266 65 149 192 180 124 98 164 166 195 211 129 147 144 162 154 170 130 182 179 176 217 194 234 245 225 201 205 211 212 195 195 202 215 202 204 207 162 122 130 132 220 171 182 233 69 83 131 145 160 173 177 175 172 171 170 174 171 175 179 178 178
323 321 322 319 320 321 319 318 315 317 318 314 308 292 288 302 314 144 155 198 157 198 220 270 261 249 214 154 193 159 111 130 160 141 162 143 161 151 151 150 140 150 159 148 157 184 170 204 186 199 184 214 193 206 215 200 202 193 185 204 175 213 196 143 165 114 203 178 226 172 244 149 111 124 149 164 177 185 180 178 176 173 175 174 178 181 179 180
326 324 319 317 317 317 319 318 315 319 319 314 289 272 250 256 252 238 174 157 200 171 207 175 192 209 41 164 81 125 140 93 125 161 150 164 162 157 156 134 155 152 164 183 152 188 172 204 199 212 199 198 198 206 216 291 231 214 194 201 213 196 189 170 102 101 239 181 197 178 198 195 164 146 158 168 180 191 186 184 181 181 179 179 181 182 180 181
324 320 319 316 314 317 319 318 317 315 329 312 210 199 201 193 180 186 197 226 245 267 334 0 219 326 209 129 143 59 101 170 159 178 149 153 163 161 153 168 157 190 166 200 153 201 176 197 194 202 202 197 199 208 231 101 315 90 166 194 199 210 157 93 115 78 169 231 213 190 207 200 184 166 164 174 176 189 195 190 190 187 186 185 186 182 182 181
321 321 318 316 314 314 312 317 313 311 315 276 273 238 276 0 288 121 203 238 246 251 273 252 258 280 342 12 64 187 174 163 205 155 164 167 165 165 149 180 178 190 197 180 164 149 196 213 203 205 205 190 190 200 213 199 206 217 197 203 182 212 173 140 93 127 112 266 151 186 208 201 189 160 165 167 187 198 197 196 194 191 189 187 189 184 183 177
325 321 320 318 316 314 316 314 311 314 285 256 234 253 64 40 10 355 300 234 175 220 235 257 297 267 253 266 298 303 272 159 162 141 139 190 162 210 142 205 184 201 170 170 161 164 203 217 198 198 192 173 174 196 206 210 202 208 224 193 221 201 175 125 140 136 109 254 152 147 213 184 180 175 163 181 199 194 206 193 197 189 189 188 187 186 180 179
325 322 321 319 316 317 317 311 308 309 231 208 215 202 51 10 326 333 265 279 267 147 225 216 221 235 226 218 213 221 200 179 157 163 160 205 167 226 149 205 196 184 167 186 186 180 201 213 206 161 170 167 162 186 193 206 226 215 212 219 207 192 201 179 159 152 157 277 4 147 235 178 166 151 181 191 204 205 206 203 197 191 190 191 185 184 181 179
324 324 324 319 321 321 316 317 302 249 217 301 6 56 27 341 318 252 249 281 2 150 211 181 263 241 210 198 149 213 209 145 178 159 160 192 192 167 191 206 199 192 191 192 209 199 206 198 157 174 175 187 179 177 194 202 207 219 230 217 219 163 210 276 119 191 200 185 249 239 234 215 190 181 191 195 206 211 201 203 206 193 192 194 185 187 186 182
324 324 322 324 324 324 321 317 251 63 34 238 138 60 20 333 295 259 278 242 207 134 160 161 233 221 82 127 182 222 138 141 16 123 163 206 154 168 210 188 233 199 199 187 209 218 194 76 148 177 187 187 193 186 201 209 216 204 216 239 244 131 226 204 167 227 201 196 187 233 223 207 140 193 40 111 179 211 194 199 187 229 187 186 197 192 189 188
324 320 325 323 326 324 314 281 83 320 244 208 67 35 355 329 280 240 271 254 154 100 182 148 222 142 339 179 173 237 187 148 79 121 164 265 134 243 125 205 222 197 190 178 210 222 175 160 180 185 186 189 195 208 187 219 230 209 191 206 231 241 220 234 224 227 215 218 141 220 247 151 151 72 42 336 125 108 104 194 163 208 210 183 178 238 191 201
324 321 320 323 323 324 268 49 46 216 223 129 72 6 340 292 204 207 250 210 179 54 82 74 209 96 276 128 189 149 203 133 134 134 180 150 217 160 222 155 187 312 151 182 202 204 169 162 187 191 189 192 196 209 171 200 229 211 86 184 217 219 223 220 229 225 242 331 86 223 241 234 143 77 81 114 77 95 89 79 206 201 190 190 184 191 198 216
320 319 318 315 322 310 349 307 242 212 33 48 12 342 331 304 204 235 258 209 72 207 132 159 19 139 258 145 222 226 35 130 162 117 91 139 217 178 252 169 202 171 170 200 202 126 178 171 188 187 200 202 207 212 165 198 229 101 122 140 193 211 213 217 218 214 241 238 225 186 206 242 143 109 85 74 93 59 56 17 25 24 224 178 213 193 192 194
319 318 315 313 312 296 274 274 292 5 50 29 344 319 297 177 231 263 267 156 73 184 347 124 87 201 155 173 173 112 157 228 277 115 124 154 237 297 219 188 216 157 173 203 220 126 196 203 190 187 195 203 210 209 171 192 219 175 115 178 185 160 199 207 204 219 185 233 225 199 177 228 140 73 81 91 43 30 19 22 12 0 348 227 206 206 201 195
319 316 316 315 271 206 201 234 233 36 318 332 319 288 228 222 232 225 200 120 226 145 242 79 225 141 170 167 149 176 161 105 85 133 149 168 130 202 330 344 202 159 185 199 278 90 101 83 54 228 215 7 205 132 213 202 227 27 177 196 168 185 186 191 227 202 199 219 223 211 184 235 173 49 49 25 29 4 359 18 9 356 338 338 236 204 209 200
318 315 306 283 261 21 253 210 132 115 284 303 286 262 238 224 249 248 180 61 239 84 139 191 130 163 176 170 147 120 106 113 126 154 138 172 148 137 136 161 258 188 172 191 168 152 150 156 190 104 348 230 259 192 197 226 226 203 195 199 176 165 176 185 188 212 209 216 213 204 200 202 249 121 62 40 35 23 9 8 8 356 357 336 333 243 208 204
317 310 289 228 329 302 284 9 41 346 292 289 281 247 222 223 206 264 94 167 213 118 229 117 144 175 176 144 127 160 130 99 106 172 147 157 136 162 132 239 183 167 183 177 152 152 166 151 99 114 77 322 188 224 178 193 198 214 193 195 187 161 184 185 178 194 213 215 194 193 150 132 59 64 51 43 27 27 19 16 10 2 358 360 340 318 236 211
320 316 272 232 216 234 249 308 308 286 278 259 252 232 232 235 145 54 112 259 83 325 116 299 133 163 137 136 116 99 94 118 97 99 114 115 139 94 70 25 350 302 184 176 149 181 113 138 173 113 182 51 247 216 158 198 190 203 205 186 202 176 188 192 187 201 195 211 112 188 180 218 109 87 55 48 40 32 26 22 19 13 11 11 14 7 211 219
319 305 222 191 216 255 311 280 264 278 265 227 236 213 241 147 95 276 50 46 69 103 103 134 150 151 167 146 121 145 119 61 170 118 193 132 164 146 142 77 1 248 261 152 178 175 143 170 150 251 172 21 270 341 344 293 183 203 207 202 215 210 199 192 190 195 193 181 167 130 195 169 183 87 75 63 52 43 38 35 34 26 24 25 28 30 30 38
318 276 236 193 230 230 256 272 231 239 252 230 222 242 146 89 58 38 63 42 78 80 117 184 158 143 106 117 131 62 15 117 74 126 134 146 98 83 68 35 30 340 304 202 70 210 174 87 79 42 38 323 1 10 314 315 180 191 201 225 224 230 223 227 187 201 180 175 160 172 224 113 110 121 87 70 61 51 44 46 40 35 35 33 33 28 26 21
296 184 213 255 0 9 309 178 207 202 246 239 242 66 59 11 40 356 42 326 271 111 140 170 164 157 134 126 117 127 32 154 134 117 88 80 61 74 32 40 5 7 321 273 146 192 132 115 90 104 130 41 30 347 124 292 227 159 205 206 209 22 264 259 324 236 229 195 176 134 108 107 126 117 92 68 60 52 45 42 40 37 34 33 36 28 22 19
237 218 226 12 4 7 68 211 196 236 239 267 98 87 28 77 6 333 2 336 358 321 210 171 134 261 159 144 141 136 116 128 143 181 111 149 102 32 33 67 4 13 10 323 173 349 262 109 106 154 129 77 16 75 10 236 307 242 200 186 91 12 344 285 210 172 213 193 143 162 147 146 182 142 89 52 44 42 46 43 42 42 35 36 32 32 23 13
296 243 19 17 9 3 184 201 255 242 260 78 73 77 360 61 32 358 338 313 263 232 255 193 112 292 140 150 132 140 154 212 136 186 107 323 88 337 10 17 42 24 353 344 297 126 307 137 129 101 94 121 176 210 177 167 303 308 350 50 218 187 207 202 271 191 194 212 152 185 148 148 205 102 83 49 32 36 44 43 40 40 37 35 33 29 28 26
255 260 85 20 8 11 222 228 253 273 257 109 114 122 57 68 30 21 7 311 308 305 273 49 146 87 224 146 121 109 197 192 151 138 162 89 146 28 25 338 80 24 6 320 258 117 238 268 129 131 180 142 186 243 195 153 161 257 242 212 157 285 219 190 219 241 205 196 157 149 176 146 71 65 50 54 46 40 45 44 43 42 41 37 31 24 26 26
296 255 79 14 7 5 210 249 264 306 29 72 71 67 344 58 31 36 30 347 30 322 54 107 86 132 76 95 158 132 55 107 147 101 18 77 80 46 32 1 345 337 2 339 29 347 209 293 170 130 139 190 183 3 53 5 211 187 206 214 197 233 8 308 199 250 220 224 188 167 185 122 82 64 60 62 57 51 48 54 48 48 46 44 36 31 25 27
269 286 72 7 358 340 261 265 26 62 88 89 66 60 49 30 10 43 35 19 83 23 41 55 69 117 128 141 102 101 118 110 114 110 95 101 13 141 46 4 336 326 324 247 146 20 240 204 223 143 183 171 70 63 38 13 350 355 313 247 307 203 204 210 207 214 253 272 200 183 173 110 88 80 84 78 70 65 57 55 58 53 52 46 38 34 30 26
270 209 36 354 342 309 268 93 70 50 55 57 51 4 42 326 357 24 24 39 39 68 47 68 55 76 83 63 94 119 117 89 95 110 29 120 52 28 47 339 328 318 310 63 38 40 341 323 248 142 59 94 97 91 28 15 327 346 344 24 302 300 283 221 226 187 236 261 315 152 117 123 93 99 91 84 76 69 57 58 59 55 52 50 39 34 32 31
34 49 32 348 342 306 340 88 89 85 74 88 145 65 32 50 21 23 27 4 59 14 62 48 31 85 48 62 105 101 88 78 32 88 107 95 73 41 11 342 328 298 287 121 195 75 290 223 120 92 103 121 144 93 71 315 276 219 107 12 318 283 334 314 333 330 213 171 206 164 147 131 130 113 103 98 88 76 73 57 53 50 50 50 45 38 32 28
40 28 45 24 337 285 270 86 105 88 98 108 98 89 66 51 26 34 37 40 25 45 53 63 74 37 86 56 95 103 342 139 81 117 109 88 94 17 20 10 337 34 336 55 326 46 264 109 279 146 170 169 174 180 182 181 237 38 39 53 2 338 279 301 291 280 252 164 292 212 163 155 127 140 112 99 88 80 74 63 47 50 48 40 40 42 37 32
251 122 47 42 31 351 59 20 53 111 101 99 79 75 96 70 31 32 34 45 38 35 73 63 34 62 79 53 86 77 41 15 129 36 93 98 96 54 44 19 22 59 41 31 349 319 313 52 295 224 198 194 194 200 193 177 156 102 73 43 33 353 330 235 212 205 236 156 264 241 130 120 132 135 124 109 100 87 69 62 61 56 47 43 35 38 39 38
351 38 55 75 33 87 85 62 31 55 107 92 92 53 59 100 87 48 11 65 32 59 52 84 68 67 96 132 90 79 86 56 130 144 163 125 124 82 30 41 44 50 41 23 338 307 68 53 359 345 337 7 42 44 32 351 153 192 91 26 32 357 339 266 330 217 214 154 125 81 133 134 140 136 125 106 89 78 74 67 62 46 47 51 46 39 42 40
45 26 356 60 123 75 83 43 56 355 45 338 38 359 65 48 73 77 358 76 34 39 66 33 30 211 73 112 97 90 71 90 89 122 109 126 81 85 51 29 73 49 333 344 2 305 165 165 76 34 40 46 67 63 51 2 103 89 355 64 35 15 2 318 258 219 48 156 116 130 140 141 136 130 115 108 92 79 66 69 64 56 46 46 45 48 46 43
75 65 13 15 316 47 40 76 11 54 57 1 84 224 67 77 56 68 86 49 32 17 313 89 66 54 56 53 96 111 102 97 118 113 115 93 142 139 135 64 51 33 308 68 360 340 303 218 99 176 99 81 59 60 50 70 71 66 51 51 61 38 52 82 62 56 350 266 161 153 158 135 135 123 115 97 67 79 74 67 56 58 50 49 45 41 42 42
58 88 51 307 325 50 40 41 7 33 64 36 89 29 80 60 83 54 9 57 24 52 343 99 69 62 62 46 348 106 99 179 124 83 98 139 82 167 151 156 91 28 47 58 46 360 275 82 128 146 128 118 98 79 61 99 137 158 124 138 110 100 92 88 95 88 85 88 121 153 144 122 120 124 115 110 92 82 84 68 63 58 49 40 42 41 38 38
54 349 96 98 74 70 54 67 30 341 86 344 146 53 35 46 72 88 54 354 88 54 20 84 74 66 69 82 96 108 72 30 61 148 104 126 152 289 63 4 41 113 354 61 308 104 288 117 202 170 168 130 119 160 163 90 213 165 158 158 164 150 123 99 101 100 107 109 113 133 127 129 118 130 125 123 112 101 62 68 59 55 49 40 38 39 34 32
41 13 334 305 93 37 16 49 71 58 106 74 89 97 72 69 73 62 68 26 38 81 60 76 71 79 68 83 84 84 60 61 59 72 91 353 26 68 314 116 312 331 49 116 179 97 273 126 200 209 218 156 162 186 170 196 207 207 178 175 171 170 164 166 150 120 150 136 141 144 157 157 159 181 152 145 132 78 64 56 57 52 42 42 36 39 34 27
244 140 254 290 85 294 336 129 140 228 75 46 27 75 354 94 91 275 108 49 51 48 58 64 57 87 93 83 76 62 41 40 49 41 33 51 31 76 48 51 346 346 311 57 264 240 266 157 194 191 230 157 135 189 169 210 210 215 204 178 163 137 99 95 89 120 120 141 157 190 159 117 141 165 174 142 135 98 73 46 41 32 43 30 27 34 34 26